Regional Weather Roundup
Issued by NWS

Home | Current Version | Previous Version | Text Only | Print | Product List | Glossary Off
Versions: 1 2 3 4 5 6 7 8 9 10 11 12 13 14 15 16 17 18 19 20 21 22 23 24 25 26 27 28 29 30 31 32 33 34 35 36 37 38 39 40 41 42 43 44 45 46 47 48 49 50

126
ASUS45 KCYS 302010
RWRWY

WYOMING REGIONAL WEATHER ROUNDUP
NATIONAL WEATHER SERVICE CHEYENNE WY
200 PM MDT THU MAR 30 2017

NOTE:  "FAIR" INDICATES FEW OR NO CLOUDS BELOW 12,000 FEET
WITH NO SIGNIFICANT WEATHER AND/OR OBSTRUCTIONS TO VISIBILITY.

WYZ001-302100-
YELLOWSTONE NATIONAL PARK

CITY           SKY/WX    TMP DP  RH WIND       PRES   REMARKS
LK YELLOWSTONE   N/A     34  34 100 CALM      29.74F
W YELLOWSTONE  NOT AVBL

$$
WYZ002>013-054>058-071-098>099-302100-
NORTHERN WYOMING

CITY           SKY/WX    TMP DP  RH WIND       PRES   REMARKS
JACKSON        PTSUNNY   46  34  61 S10       29.68F
CODY           CLOUDY    41  37  86 N15       29.72S
GREYBULL       FAIR      58  37  45 NW13G22   29.63F
WORLAND        PTSUNNY   61  39  44 NW12      29.61F
SHERIDAN       CLOUDY    50  42  74 NE8       29.71F
BUFFALO        CLOUDY    52  37  56 N13G25    29.71S
GILLETTE       FAIR      57  37  47 E7        29.66F
HULETT         CLOUDY    55  37  50 NE6       29.70F
NEWCASTLE      FAIR      55  34  44 S13G21    29.69F

$$
WYZ014>020-022>026-101>103-302100-
CENTRAL WYOMING

CITY           SKY/WX    TMP DP  RH WIND       PRES   REMARKS
BIG PINEY      CLOUDY    45  35  68 SW15      29.71F
PINEDALE       MOCLDY    43  32  65 E8        29.72F
DUBOIS         FAIR      48  27  43 NE6       29.65F
LANDER         FAIR      56  33  42 N5        29.61F
RIVERTON       FAIR      57  35  43 NE6       29.63F
CASPER         CLOUDY    51  37  58 SW17      29.68F
DOUGLAS        CLOUDY    56  37  49 W13       29.69S

$$
WYZ021-027>030-104>119-302100-
SOUTHERN WYOMING

CITY           SKY/WX    TMP DP  RH WIND       PRES   REMARKS
EVANSTON       CLOUDY    42  35  76 N13       29.68F
KEMMERER       LGT RAIN  37  36  93 N8        29.71F WCI  31
FORT BRIDGER   MOCLDY    49  39  67 N10       29.71F
ROCK SPRINGS   PTSUNNY   53  33  46 VRB5      29.69F
DIXON            N/A     56  30  37 SW15G23   29.75F
RAWLINS        CLOUDY    52  30  43 SW21G26   29.73F
SARATOGA       CLOUDY    48  30  49 W10G20    29.76F
LARAMIE        CLOUDY    50  28  42 W10G21    29.74F
CHEYENNE       LGT RAIN  56  28  34 NW14      29.71F
TORRINGTON     PTSUNNY   63  32  31 VRB7      29.67F
PINE BLUFFS    CLOUDY    61  32  33 NW10      29.70F

$$




USA.gov is the U.S. government's official web portal to all federal, state and local government web resources and services.